• Join FlightAware (Why Join?)
  • Login
  • US Flag 
12:15PM EDT


 

Airport Tracker/Info


-or-


 

Live Flight TrackerFlight Track Log ✈ SWA499 ✈ 05-May-2013 ✈ KSLC - KDEN

Flight Track Log - Related Links

Times and Time Zones

All times are in EDT time to prevent confusion due to time zone crossing. See the SWA499 flight status page for this flight to view local times or setup timezone preferences in your user account.

Time Position Orientation Groundspeed Altitude Reporting Facility
EDT Latitude Longitude Course Direction KTS MPH feet Rate Location/Type
10:27AM 40.8056 -111.9628 353° North 171 197 4,900  Level Salt Lake Center
10:28AM 40.8722 -111.9739 353° North 239 275 6,700 1,680 Climbing Salt Lake Center
10:29AM 40.8911 -111.9761 355° North 248 285 7,400 2,940 Climbing Salt Lake Center
10:30AM 40.9683 -111.9767 360° North 279 321 10,700 3,060 Climbing Salt Lake Center
10:31AM 40.9806 -111.8847 80° East 287 330 13,700 3,120 Climbing Salt Lake Center
10:32AM 40.9542 -111.7564 105° East 314 361 17,100 3,000 Climbing Salt Lake Center
10:33AM 40.9300 -111.6422 106° East 324 373 19,800 1,980 Climbing Salt Lake Center
10:34AM 40.9169 -111.5089 97° East 376 433 21,300 2,040 Climbing Salt Lake Center
10:35AM 40.9064 -111.3614 95° East 405 466 24,000 2,400 Climbing Salt Lake Center
10:36AM 40.8872 -111.2125 100° East 410 472 26,100 1,980 Climbing Salt Lake Center
10:37AM 40.8694 -111.0581 99° East 421 484 28,100 1,860 Climbing Salt Lake Center
10:38AM 40.8503 -110.8992 99° East 434 499 30,000 1,800 Climbing Salt Lake Center
10:39AM 40.8308 -110.7392 99° East 440 506 31,900 1,680 Climbing Salt Lake Center
10:40AM 40.8069 -110.5561 100° East 451 519 33,500 1,320 Climbing Salt Lake Center
10:41AM 40.7881 -110.3961 99° East 460 529 34,700 720 Climbing Salt Lake Center
10:42AM 40.7628 -110.2022 100° East 470 541 35,000 120 Climbing Salt Lake Center
10:43AM 40.7417 -110.0425 100° East 464 534 35,000  Level Salt Lake Center
10:44AM 40.7283 -109.8525 95° East 465 535 35,000  Level Salt Lake Center
10:45AM 40.7178 -109.6892 95° East 465 535 35,000  Level Salt Lake Center
10:46AM 40.7047 -109.5267 96° East 465 535 35,000  Level Salt Lake Center
10:47AM 40.6903 -109.3350 96° East 468 539 35,000  Level Salt Lake Center
10:48AM 40.6797 -109.1819 95° East 466 536 35,000  Level Salt Lake Center
10:49AM 40.6650 -108.9906 96° East 471 542 35,000  Level Salt Lake Center
10:50AM 40.6514 -108.8289 96° East 470 541 35,000  Level Salt Lake Center
10:51AM 40.6369 -108.6436 96° East 461 531 35,000  Level Salt Lake Center
10:52AM 40.6236 -108.4844 96° East 458 527 35,000  Level Salt Lake Center
10:53AM 40.6075 -108.2992 96° East 459 528 35,000  Level Salt Lake Center
10:54AM 40.5944 -108.1397 96° East 460 529 35,000 -60 Level Salt Lake Center
10:55AM 40.5811 -107.9797 96° East 461 531 34,900 -660 Descending Salt Lake Center
10:56AM 40.5633 -107.7911 97° East 465 535 33,700 -1,380 Descending Salt Lake Center
10:57AM 40.5492 -107.6294 97° East 466 536 32,100 -1,200 Descending Salt Lake Center
10:59AM 40.5317 -107.4300 97° East 448 516 31,000 -780 Descending Denver Center
11:00AM 40.5164 -107.2533 96° East 438 504 30,400 -1,320 Descending Denver Center
11:01AM 40.5086 -107.0872 93° East 432 497 28,300 -1,380 Descending Denver Center
11:02AM 40.5011 -106.9356 94° East 421 484 27,600 -660 Descending Denver Center
11:03AM 40.4925 -106.7850 94° East 413 475 27,000 -300 Descending Denver Center
11:04AM 40.4836 -106.6369 94° East 406 467 27,000  Level Denver Center
11:05AM 40.4753 -106.4803 94° East 414 476 27,000  Level Denver Center
11:06AM 40.4642 -106.3100 95° East 417 480 27,000 -120 Level Denver Center
11:07AM 40.4567 -106.1642 94° East 417 480 26,800 -1,080 Descending Denver Center
11:08AM 40.4456 -106.0114 95° East 409 471 24,800 -1,920 Descending Denver Center
11:09AM 40.4253 -105.8686 101° East 397 457 22,900 -1,860 Descending Denver Center
11:10AM 40.4033 -105.7306 102° East 386 444 21,000 -1,800 Descending Denver Center
11:11AM 40.3819 -105.5950 102° East 377 434 19,300 -1,440 Descending Denver Center
11:12AM 40.3589 -105.4533 102° East 364 419 18,100 -1,200 Descending Denver Center
11:13AM 40.3408 -105.3272 101° East 326 375 16,900 -1,320 Descending Denver Center
11:14AM 40.3256 -105.2111 100° East 325 374 15,400 -1,560 Descending Denver Center
11:15AM 40.3081 -105.0903 101° East 316 364 13,700 -1,320 Descending Denver Center
11:16AM 40.2883 -104.9833 104° East 304 350 12,700 -1,140 Descending Denver Center
11:17AM 40.2447 -104.8853 120° Southeast 293 337 11,400 -1,380 Descending Denver Center
11:18AM 40.1914 -104.8142 134° Southeast 279 321 9,900 -1,140 Descending Denver Center
11:19AM 40.1261 -104.7786 157° South 255 293 9,100 -840 Descending Denver Center
11:20AM 40.0625 -104.7417 156° South 236 272 8,200 -720 Descending Denver Center
11:21AM 40.0139 -104.7142 157° South 195 224 7,700 -720 Descending Denver Center
11:22AM 39.9675 -104.6950 162° South 162 186 6,800 -840 Descending Denver Center
11:23AM 39.9261 -104.6958 181° South 149 171 6,000 -780 Descending Denver Center
11:24AM 39.8836 -104.6969 181° South 150 173 5,300 -720 Descending Denver Center
11:26AM 39.8617 -104.6732 North  Level Estimated
11:33AM 39.8617 -104.6732 North  Level Estimated
11:34AM 39.8617 -104.6732 North  Level Estimated
11:35AM 39.8617 -104.6732 North  Level Estimated